Tracking 25964 objects as of 11-Aug-2022
HD Live streaming from Space Station
objects crossing your sky now

OPS 6026 (DMSP 4A F1)

Track OPS 6026 (DMSP 4A F1) now!
10-day predictions
OPS 6026 (DMSP 4A F1) is classified as:


NORAD ID: 2418
Int'l Code: 1966-082A
Perigee: 675.0 km
Apogee: 843.4 km
Inclination: 98.2 °
Period: 99.9 minutes
Semi major axis: 7130 km
RCS: 0.634 m2 (medium)
Launch date: September 16, 1966
Source: United States (US)
Launch site: AIR FORCE WESTERN TEST RANGE (AFWTR)
aabbcc
Your satellite tracking list
Your tracking list is empty




NASA's NSSDC Master Catalog

Two Line Element Set (TLE):
1 02418U 66082A   22222.42698607  .00000107  00000-0  43070-4 0  9995
2 02418  98.1892  38.1989 0118059 327.6208  31.7774 14.41946125909424
Source of the keplerian elements: AFSPC